Content
SEND FEEDBACK

Daily
Averages
Monthly
Summary
United States of America

ACHANG BAY, GUAM


Home > North America > United States > Guam
Elevation: 10 meters     Latitude: 13 16N     Longitude: 144 45E

WEATHER
 
SELECT A DAY
Number of Records: 342,273;   Date Range: 1/1/95 - 8/30/14
 
SHARE

PRINT THIS DATA

[ ← Previous Day ]
WEATHER ALMANAC - 3 APRIL, 2013
[ Next Day → ]
[ °F ]   °C
Weather ElementAverageHighLow
Temperature26.2 °C28.7 °C (12:55 pm)24.3 °C (5:55 am)
Dewpoint21.8 °C23 °C (2:55 pm)19.6 °C (4:55 am)
Humidity76.7 %86 % (11:55 pm)68 % (9:55 am)
Barometer1010.8 hPa1012.2 hPa (7:55 am)1008.5 hPa (5:11 pm)
Wind Speed17.9 km/h27.8 km/h (8:55 am)
Weather ElementAverage
Visibility15.9 km
Wind DirectionENE (77 °)

Weather ElementTotal
Precipitation---
Cooling Degree Days8.2 (Base 18.3)
Growing Degree Days16.5 (Base 10)
Averaged from 40 records on 3 April, 2013
WEATHER CONDITIONS BREAKOUT
WIND DIRECTION BREAKOUT
WEATHER BY HOUR - 3 APRIL, 2013
[ °F ]   °C
Local TimeTemperatureDewpointHumidityBarometerVisibilityWind DirectionWind SpeedGust SpeedPrecipitationEventsConditions
12:47 AM25 °C21 °C78 %1011.9 hPa16.1 kmEast (90°)22.2 km/hMostly Cloudy
12:49 AM25 °C21 °C78 %1011.9 hPa16.1 kmEast (90°)20.4 km/hMostly Cloudy
12:55 AM25.5 °C21 °C76 %1011.9 hPa16.1 kmEast (100°)14.8 km/hMostly Cloudy
1:25 AM25 °C21 °C78 %1011.5 hPa16.1 kmEast (80°)22.2 km/hMostly Cloudy
1:26 AM25 °C21 °C78 %1011.5 hPa16.1 kmEast (80°)22.2 km/hMostly Cloudy
1:43 AM25 °C21 °C78 %1011.5 hPa16.1 kmEast (90°)22.2 km/hMostly Cloudy
1:45 AM25 °C21 °C78 %1011.5 hPa16.1 kmEast (80°)20.4 km/hMostly Cloudy
1:49 AM25 °C21 °C78 %1011.5 hPa16.1 kmEast (90°)22.2 km/hMostly Cloudy
1:55 AM25.2 °C20.4 °C75 %1011.5 hPa16.1 kmEast (90°)18.5 km/hMostly Cloudy
2:55 AM24.8 °C19.9 °C74 %1011.2 hPa16.1 kmEast (90°)16.7 km/hClear
3:55 AM24.9 °C20.2 °C75 %1011.2 hPa16.1 kmEast (100°)14.8 km/hScattered Clouds
4:55 AM24.4 °C19.6 °C74 %1011.2 hPa16.1 kmEast (100°)14.8 km/hClear
5:55 AM24.3 °C20.4 °C79 %1011.5 hPa16.1 kmEast (100°)13 km/hClear
6:55 AM24.8 °C21.3 °C81 %1011.9 hPa16.1 kmEast (100°)11.1 km/hClear
7:55 AM26.2 °C21.5 °C75 %1012.2 hPa16.1 kmEast (100°)20.4 km/hScattered Clouds
8:55 AM27.7 °C21.9 °C70 %1012.2 hPa16.1 kmEast (80°)27.8 km/hClear
9:55 AM28.2 °C21.9 °C68 %1011.9 hPa16.1 kmEast (90°)18.5 km/hClear
10:55 AM28.3 °C22.1 °C69 %1011.9 hPa16.1 kmEast (90°)24.1 km/hPartly Cloudy
11:55 AM28.6 °C22.8 °C71 %1011.2 hPa16.1 kmENE (70°)18.5 km/hPartly Cloudy
12:55 PM28.7 °C22.7 °C70 %1010.5 hPa16.1 kmEast (90°)18.5 km/hScattered Clouds
1:55 PM28.5 °C22.8 °C71 %1009.5 hPa16.1 kmENE (70°)14.8 km/hPartly Cloudy
2:55 PM28.3 °C23 °C73 %1009.1 hPa16.1 kmEast (90°)14.8 km/hScattered Clouds
3:55 PM28.1 °C22.9 °C73 %1008.8 hPa16.1 kmENE (70°)18.5 km/hScattered Clouds
4:55 PM27.6 °C22.8 °C75 %1008.8 hPa16.1 kmENE (60°)18.5 km/hMostly Cloudy
5:00 PM27 °C22 °C74 %1008.8 hPa16.1 kmENE (60°)16.7 km/hScattered Clouds
5:11 PM28 °C23 °C74 %1008.5 hPa16.1 kmENE (70°)13 km/hMostly Cloudy
5:16 PM28 °C22 °C70 %1008.5 hPa16.1 kmENE (60°)14.8 km/hScattered Clouds
6:46 PM26 °C22 °C78 %1009.1 hPa16.1 kmENE (60°)16.7 km/hScattered Clouds
6:49 PM26 °C22 °C78 %1009.1 hPa16.1 kmENE (70°)18.5 km/hMostly Cloudy
6:51 PM26 °C22 °C78 %1009.1 hPa16.1 kmENE (70°)18.5 km/hScattered Clouds
6:55 PM25.6 °C22.1 °C81 %1009.1 hPa16.1 kmENE (60°)16.7 km/hScattered Clouds
7:55 PM25.5 °C22.2 °C82 %1009.8 hPa16.1 kmENE (60°)16.7 km/hPartly Cloudy
8:55 PM25.4 °C22.2 °C82 %1010.5 hPa16.1 kmENE (60°)16.7 km/hScattered Clouds
9:20 PM25 °C22 °C83 %1010.8 hPa16.1 kmENE (60°)16.7 km/hScattered Clouds
9:25 PM26 °C22 °C78 %1010.8 hPa16.1 kmENE (60°)18.5 km/hMostly Cloudy
9:38 PM26 °C22 °C78 %1011.2 hPa16.1 kmENE (60°)18.5 km/hScattered Clouds
9:47 PM26 °C23 °C83 %1011.2 hPa16.1 kmENE (60°)14.8 km/hMostly Cloudy
9:55 PM25.5 °C22.3 °C82 %1011.2 hPa16.1 kmENE (60°)14.8 km/hMostly Cloudy
10:55 PM25.6 °C23 °C85 %1011.5 hPa16.1 kmENE (60°)18.5 km/hMostly Cloudy
11:55 PM25.1 °C22.7 °C86 %1011.2 hPa11.3 kmENE (60°)14.8 km/hPartly Cloudy
Hourly data recorded from PGUA, located 0 kilometers away from Achang Bay, Guam







STORIES FROM OUR PARTNERS